Content
SEND FEEDBACK

Daily
Averages
Monthly
Summary
Philippines

TANQUE, PHILIPPINES


Home > Asia > Philippines
Elevation: 43 feet     Latitude: 14 34N     Longitude: 120 58E

WEATHER
 
SELECT A DAY
Number of Records: 172,573;   Date Range: 7/1/96 - 8/12/14
 
SHARE

PRINT THIS DATA

[ ← Previous Day ]
WEATHER ALMANAC - MARCH 12, 2013
[ Next Day → ]
[ °C ]   °F
Weather ElementAverageHighLow
Temperature81.8 °F92 °F (2:00 pm) (1:00 pm)
Dewpoint72.1 °F73.4 °F (2:00 am)68 °F (3:00 pm)
Humidity65.3 %83 % (4:00 am)39 % (2:00 pm)
Barometer29.87 in29.93 in (11:00 am)29.80 in (3:00 pm)
Wind Speed7.9 mph12.7 mph (12:00 pm)
Weather ElementAverage
Visibility6.1 mi
Wind DirectionESE (111.3 °)

Weather ElementTotal
Precipitation---
Heating Degree Days19 (Base 65)
Averaged from 31 records on March 12, 2013
WEATHER CONDITIONS BREAKOUT
WIND DIRECTION BREAKOUT
WEATHER BY HOUR - MARCH 12, 2013
[ °C ]   °F
Local TimeTemperatureDewpointHumidityBarometerVisibilityWind DirectionWind SpeedGust SpeedPrecipitationEventsConditions
1:00 AM80.6 °F71.6 °F74 %29.89 in6.2 miESE (120°)4.6 mphPartly Cloudy
2:00 AM80.0 °F72.0 °F71 %29.88 in6.0 miEast (90°)4.5 mphHaze
2:00 AM80.6 °F73.4 °F79 %29.86 in6.2 miEast (90°)4.6 mphPartly Cloudy
3:00 AM78.8 °F71.6 °F78 %29.86 inENE (60°)4.6 mphPartly Cloudy
4:00 AM77.0 °F71.6 °F83 %29.86 inENE (70°)3.5 mphPartly Cloudy
5:00 AM80.0 °F73.0 °F75 %29.86 in6.0 miNNE (30°)4.5 mphPartly Cloudy
5:00 AM78.8 °F73.4 °F83 %29.89 in6.2 miEast (100°)3.5 mphPartly Cloudy
6:00 AM78.8 °F73.4 °F83 %29.89 in6.2 miVariable2.3 mphPartly Cloudy
7:00 AM80.6 °F73.4 °F79 %29.89 in6.2 miESE (110°)3.5 mphPartly Cloudy
8:00 AM82.0 °F73.0 °F68 %29.92 in6.0 miSE (130°)6.7 mphHaze
8:00 AM84.2 °F73.4 °F70 %29.92 in6.2 miSE (130°)8.1 mphPartly Cloudy
9:00 AM86.0 °F73.4 °F66 %29.92 in6.2 miESE (110°)9.2 mphPartly Cloudy
10:00 AM87.8 °F73.4 °F62 %29.92 in6.2 miSE (130°)9.2 mphPartly Cloudy
11:00 AM88.0 °F73.0 °F54 %29.93 in6.0 miSE (130°)8.9 mphPartly Cloudy
11:00 AM87.8 °F73.4 °F62 %29.92 in6.2 miSE (130°)10.4 mphPartly Cloudy
12:00 PM89.6 °F73.4 °F59 %29.89 in6.2 miSE (130°)12.7 mphPartly Cloudy
1:00 PM0.0 °F71.6 °F29.86 in6.2 miSE (130°)11.5 mphPartly Cloudy
2:00 PM92.0 °F70.0 °F39 %29.85 in6.0 miSE (130°)8.9 mphScattered Clouds
2:00 PM91.4 °F69.8 °F49 %29.83 in6.2 miSE (130°)10.4 mphPartly Cloudy
3:00 PM91.4 °F68.0 °F46 %29.80 in6.2 miESE (120°)12.7 mphPartly Cloudy
4:00 PM91.4 °F69.8 °F49 %29.80 in6.2 miSE (130°)12.7 mphPartly Cloudy
5:00 PM89.0 °F69.0 °F42 %29.82 in6.0 miSE (130°)11.2 mphScattered Clouds
5:00 PM89.6 °F68.0 °F49 %29.80 in6.2 miSE (130°)11.5 mphPartly Cloudy
6:00 PM87.8 °F71.6 °F58 %29.83 in6.2 miESE (120°)10.4 mphPartly Cloudy
7:00 PM86.0 °F71.6 °F62 %29.83 in6.2 miESE (120°)8.1 mphPartly Cloudy
8:00 PM84.0 °F73.0 °F62 %29.88 in6.0 miESE (120°)8.9 mphScattered Clouds
8:00 PM84.2 °F73.4 °F70 %29.86 in6.2 miESE (120°)9.2 mphPartly Cloudy
9:00 PM82.4 °F71.6 °F70 %29.89 in6.2 miSE (130°)8.1 mphPartly Cloudy
10:00 PM82.4 °F73.4 °F74 %29.92 in6.2 miESE (120°)8.1 mphPartly Cloudy
11:00 PM82.0 °F73.0 °F68 %29.93 in6.0 miSE (130°)6.7 mphScattered Clouds
11:00 PM82.4 °F73.4 °F74 %29.92 in6.2 miSE (130°)6.9 mphPartly Cloudy
Hourly data recorded from RPLL, located miles away from Tanque, Philippines







STORIES FROM OUR PARTNERS